1514782800.92,51502,8.0,72876.5,-1.93,-30.11,-30.11,0,*58
1514782802.17,51503,8.0,72874.8,-1.93,-30.05,-29.89,0,*55
1514782803.37,51504,8.0,72872.0,-1.93,-30.11,-29.95,0,*5A
1514782804.61,51505,8.0,72878.5,-1.93,-29.95,-29.73,0,*57
1514782805.81,51506,8.0,72872.8,-1.93,-29.79,-29.61,0,*55
1514782807.01,51507,8.0,72872.0,-1.93,-29.79,-29.61,0,*54
1514782808.22,51508,8.0,72878.3,-1.93,-29.79,-29.57,0,*5E
1514782809.45,51509,8.0,72870.5,-1.93,-29.73,-29.57,0,*55
1514782810.7,51510,8.0,72868.0,-1.91,-29.73,-29.57,0,*5F
1514782811.93,51511,8.0,72872.3,-1.93,-29.57,-29.39,0,*52
1514782813.14,51512,8.0,72872.3,-1.93,-29.57,-29.45,0,*5A
1514782814.37,51513,8.0,72874.0,-1.93,-29.73,-29.45,0,*5D
1514782815.6,51514,8.0,72878.8,-1.93,-29.73,-29.45,0,*5A
1514782816.86,51515,8.0,72874.3,-1.91,-29.73,-29.57,0,*5A
1514782818.12,51516,8.0,72868.0,-1.91,-29.73,-29.57,0,*59
1514782819.37,51517,8.0,72872.5,-1.89,-29.73,-29.51,0,*57
1514782820.63,51518,8.0,72872.8,-1.89,-29.89,-29.73,0,*5D
1514782821.89,51519,8.0,72874.0,-1.91,-30.11,-29.89,0,*59
1514782823.11,51520,8.0,72874.5,-1.91,-30.33,-30.11,0,*5A
1514782824.35,51521,8.0,72878.3,-1.93,-30.11,-29.89,0,*50
1514782825.57,51522,8.0,72882.3,-1.89,-30.11,-30.05,0,*54
1514782826.77,51523,8.0,72882.3,-1.93,-30.11,-29.95,0,*5F
1514782828.03,51524,8.0,72876.8,-1.93,-30.05,-29.89,0,*50
1514782829.26,51525,8.0,72872.3,-1.93,-29.79,-29.73,0,*57
1514782830.52,51526,8.0,72868.8,-1.91,-29.95,-29.89,0,*51
1514782831.73,51527,8.0,72870.3,-1.93,-29.79,-29.57,0,*53
1514782833.01,51528,8.0,72878.3,-1.91,-30.05,-29.89,0,*5E
1514782834.24,51529,8.0,72874.8,-1.91,-29.95,-29.79,0,*51
1514782835.49,51530,8.0,72872.8,-1.93,-30.17,-30.05,0,*5A
1514782836.75,51531,8.0,72878.8,-1.91,-30.17,-30.11,0,*5C
1514782837.98,51532,8.0,72880.5,-1.93,-30.45,-30.17,0,*5C
1514782839.18,51533,8.0,72880.8,-1.93,-30.11,-29.95,0,*5E
1514782840.38,51534,8.0,72882.0,-1.93,-30.11,-29.95,0,*59
1514782841.61,51535,8.0,72882.8,-1.95,-30.11,-29.83,0,*59
1514782842.85,51536,8.0,72882.0,-1.95,-30.11,-29.83,0,*5A
1514782844.11,51537,8.0,72880.0,-1.95,-30.17,-29.83,0,*5D
1514782845.33,51538,8.0,72882.0,-1.93,-30.05,-29.79,0,*52
1514782846.61,51539,8.0,72882.5,-1.91,-30.17,-29.89,0,*5D
1514782847.84,51540,8.0,72880.3,-1.93,-30.17,-29.95,0,*5C
1514782849.05,51541,8.0,72882.5,-1.93,-29.95,-29.79,0,*5D
1514782850.3,51542,8.0,72880.3,-1.93,-29.89,-29.73,0,*59
1514782851.54,51543,8.0,72880.5,-1.95,-30.11,-29.83,0,*58
1514782852.78,51544,8.0,72880.0,-1.95,-30.01,-29.79,0,*5B
1514782854.01,51545,8.0,72882.0,-1.93,-29.73,-29.57,0,*5D
1514782855.24,51546,8.0,72880.5,-1.93,-29.61,-29.39,0,*55
1514782856.48,51547,8.0,72880.3,-1.95,-29.95,-29.67,0,*52
1514782857.71,51548,8.0,72880.5,-1.93,-29.73,-29.45,0,*53
1514782858.96,51549,8.0,72888.3,-1.95,-30.01,-29.67,0,*59
1514782860.22,51550,8.0,72890.8,-1.95,-29.61,-29.29,0,*55
1514782861.45,51551,8.0,72888.0,-1.95,-29.79,-29.45,0,*57
1514782862.68,51552,8.0,72890.5,-1.93,-29.89,-29.57,0,*5E
1514782863.92,51553,8.0,72890.5,-1.93,-29.89,-29.57,0,*5F
1514782865.12,51554,8.0,72888.8,-1.93,-29.79,-29.57,0,*57
1514782866.33,51555,8.0,72886.5,-1.93,-29.95,-29.67,0,*57
1514782867.58,51556,8.0,72888.3,-1.95,-30.01,-29.79,0,*58
1514782868.82,51557,8.0,72890.3,-1.95,-29.83,-29.67,0,*54
1514782870.06,51558,8.0,72890.3,-1.95,-29.95,-29.67,0,*5C
1514782871.28,51559,8.0,72888.8,-1.93,-29.79,-29.29,0,*53
1514782872.51,51560,8.0,72886.0,-1.93,-29.79,-29.39,0,*58
1514782873.77,51561,8.0,72880.8,-1.95,-29.83,-29.51,0,*54
1514782874.98,51562,8.0,72882.8,-1.93,-29.79,-29.57,0,*52
1514782876.22,51563,8.0,72880.8,-1.93,-29.73,-29.29,0,*50
1514782877.45,51564,8.0,72880.5,-1.95,-29.79,-29.45,0,*51
1514782878.68,51565,8.0,72876.3,-1.93,-29.73,-29.57,0,*5F
1514782879.93,51566,8.0,72880.8,-1.95,-29.67,-29.29,0,*56
1514782881.22,51567,8.0,72882.0,-1.95,-29.51,-29.29,0,*52
1514782882.47,51568,8.0,72876.3,-1.93,-29.73,-29.39,0,*5A
1514782883.69,51569,8.0,72880.8,-1.93,-29.73,-29.45,0,*50
1514782884.93,51570,8.06,72884.0,-1.95,-29.79,-29.45,0,*54
1514782886.16,51571,8.06,72882.3,-1.93,-29.73,-29.45,0,*59
1514782887.39,51572,8.0,72882.3,-1.95,-29.79,-29.45,0,*56
1514782888.65,51573,8.0,72884.5,-1.95,-29.67,-29.35,0,*5F
1514782889.88,51574,8.0,72876.3,-1.93,-29.73,-29.45,0,*5C
1514782891.11,51575,8.0,72880.0,-1.95,-30.11,-29.83,0,*5D
1514782892.34,51576,8.0,72882.8,-1.93,-29.95,-29.73,0,*53
1514782893.56,51577,8.0,72882.8,-1.97,-30.01,-29.79,0,*59
1514782894.84,51578,8.0,72878.5,-1.95,-30.17,-30.01,0,*54
1514782896.04,51579,8.0,72882.0,-1.97,-30.23,-29.95,0,*55
1514782897.27,51580,8.0,72882.5,-1.97,-30.23,-30.01,0,*56
1514782898.52,51581,8.0,72880.0,-1.97,-30.39,-30.17,0,*5B
1514782899.77,51582,8.0,72886.0,-1.97,-30.39,-30.17,0,*58
1514782901.02,51583,8.0,72880.5,-1.97,-30.39,-30.17,0,*59
1514782902.21,51584,8.0,72884.5,-1.97,-30.33,-29.95,0,*56
1514782903.47,51585,8.0,72886.0,-1.99,-30.27,-30.05,0,*5D
1514782904.73,51586,8.0,72886.0,-1.99,-30.23,-29.89,0,*56
1514782905.96,51587,8.0,72884.8,-2.01,-30.17,-29.83,0,*58
1514782907.19,51588,8.0,72888.0,-2.01,-30.17,-29.83,0,*57
1514782908.42,51589,8.0,72888.8,-2.01,-30.23,-29.89,0,*5B
1514782909.69,51590,8.0,72888.3,-1.99,-30.27,-29.89,0,*55
1514782910.91,51591,8.0,72890.3,-2.01,-30.01,-29.57,0,*51
1514782912.15,51592,8.0,72890.3,-2.01,-29.89,-29.57,0,*5A
1514782913.41,51593,8.0,72886.8,-1.99,-30.01,-29.83,0,*58
1514782914.64,51594,8.0,72888.5,-2.01,-30.01,-29.67,0,*57
1514782915.87,51595,8.0,72884.3,-2.01,-29.67,-29.35,0,*59
1514782917.11,51596,8.06,72888.0,-2.01,-29.67,-29.35,0,*5A
1514782918.31,51597,8.0,72888.8,-2.01,-29.67,-29.23,0,*5C
1514782919.55,51598,8.0,72890.5,-2.01,-29.83,-29.51,0,*5C
1514782920.81,51599,8.0,72884.3,-1.99,-29.83,-29.51,0,*5F
1514782922.1,51600,8.0,72884.8,-1.99,-29.89,-29.51,0,*56
1514782923.34,51601,8.06,72890.0,-2.01,-29.83,-29.51,0,*5F
1514782924.57,51602,8.0,72884.3,-2.01,-29.83,-29.35,0,*5E
1514782925.81,51603,8.0,72890.3,-2.01,-29.83,-29.35,0,*5F
1514782927.04,51604,8.0,72886.0,-2.01,-29.57,-29.17,0,*51
1514782928.25,51605,8.0,72888.0,-2.01,-29.23,-28.85,0,*59
1514782929.48,51606,8.0,72890.8,-2.05,-29.29,-28.85,0,*54
1514782930.73,51607,8.0,72884.5,-2.01,-29.17,-28.79,0,*5F
1514782931.96,51608,8.0,72884.5,-2.01,-29.17,-28.97,0,*50
1514782933.19,51609,8.0,72880.3,-2.01,-29.35,-28.97,0,*51
1514782934.42,51610,8.0,72882.8,-1.99,-29.67,-29.23,0,*52
1514782935.64,51611,8.0,72880.8,-2.01,-29.73,-29.23,0,*54
1514782936.85,51612,8.0,72878.5,-2.01,-29.83,-29.23,0,*58
1514782938.07,51613,8.0,72876.5,-2.01,-29.73,-29.23,0,*56
1514782939.27,51614,8.0,72874.0,-2.01,-29.83,-29.23,0,*5E
1514782940.47,51615,8.0,72876.5,-2.01,-29.83,-29.23,0,*5F
1514782941.73,51616,8.0,72882.8,-1.99,-29.83,-29.39,0,*55
1514782942.95,51617,8.0,72884.5,-2.01,-29.73,-29.23,0,*52
1514782944.15,51618,8.0,72890.0,-2.01,-29.83,-29.23,0,*52
1514782945.41,51619,8.06,72890.0,-2.01,-29.89,-29.39,0,*52
1514782946.66,51620,8.0,72890.8,-2.01,-30.01,-29.51,0,*5E
1514782947.93,51621,8.0,72888.8,-2.01,-29.89,-29.35,0,*55
1514782949.15,51622,8.0,72888.3,-2.01,-30.05,-29.57,0,*5E
1514782950.41,51623,8.0,72886.3,-2.01,-30.05,-29.51,0,*59
1514782951.62,51624,8.0,72886.3,-2.05,-29.95,-29.45,0,*5E
1514782952.86,51625,8.0,72880.8,-2.01,-29.39,-28.85,0,*50
1514782954.09,51626,8.0,72880.8,-2.01,-29.35,-28.97,0,*5C
1514782955.29,51627,8.0,72878.3,-2.01,-29.67,-29.07,0,*52
1514782956.54,51628,8.0,72882.3,-2.05,-29.73,-29.13,0,*59
1514782957.79,51629,8.0,72886.8,-2.05,-29.73,-29.13,0,*58
1514782959.05,51630,8.0,72884.5,-2.05,-29.89,-29.29,0,*5C
1514782960.33,51631,8.0,72882.0,-2.07,-29.89,-29.29,0,*5F
1514782961.58,51632,8.0,72886.8,-2.05,-29.89,-29.29,0,*5E
1514782962.79,51633,8.0,72890.3,-2.05,-29.61,-29.07,0,*55
1514782964.05,51634,8.0,72886.0,-2.05,-29.01,-28.59,0,*5E
1514782965.29,51635,8.0,72880.3,-2.07,-29.23,-28.69,0,*5E
1514782966.57,51636,8.06,72884.3,-2.07,-29.73,-29.01,0,*57
1514782967.82,51637,8.0,72884.5,-2.05,-29.89,-29.29,0,*5B
1514782969.08,51638,8.0,72884.8,-2.05,-29.89,-29.13,0,*5D
1514782970.31,51639,8.06,72886.8,-2.05,-29.95,-29.29,0,*58
1514782971.59,51640,8.06,72886.0,-2.07,-30.05,-29.39,0,*54
1514782972.84,51641,8.0,72884.3,-2.05,-30.05,-29.39,0,*57
1514782974.07,51642,8.0,72884.5,-2.05,-29.95,-29.29,0,*54
1514782975.3,51643,8.0,72882.3,-2.07,-29.95,-29.23,0,*5D
1514782976.57,51644,8.0,72876.8,-2.07,-29.39,-28.69,0,*53
1514782977.83,51645,8.0,72874.5,-2.05,-29.29,-28.59,0,*52
1514782979.09,51646,8.0,72870.3,-2.07,-29.61,-29.01,0,*53
1514782980.34,51647,8.0,72878.0,-2.07,-29.89,-29.07,0,*52
1514782981.55,51648,8.0,72876.5,-2.05,-29.79,-29.07,0,*50
1514782982.8,51649,8.0,72876.3,-2.07,-29.79,-29.13,0,*56
1514782984.06,51650,8.0,72876.5,-2.07,-29.89,-29.23,0,*52
1514782985.31,51651,8.0,72876.5,-2.07,-30.05,-29.23,0,*5F
1514782986.51,51652,8.0,72878.5,-2.09,-29.83,-28.97,0,*5A
1514782987.77,51653,8.0,72878.5,-2.07,-29.89,-29.07,0,*57
1514782989.0,51654,8.0,72882.8,-2.09,-29.83,-29.13,0,*51
1514782990.26,51655,8.0,72882.3,-2.07,-29.45,-28.75,0,*55
1514782991.49,51656,8.0,72878.8,-2.07,-29.79,-28.85,0,*56
1514782992.75,51657,8.0,72876.5,-2.07,-29.79,-29.01,0,*5A
1514782994.01,51658,8.0,72878.5,-2.07,-29.79,-29.01,0,*55
1514782995.22,51659,8.0,72880.5,-2.09,-29.95,-28.97,0,*56
1514782996.42,51660,8.0,72876.3,-2.09,-29.95,-29.07,0,*54
1514782997.67,51661,8.0,72876.5,-2.11,-29.95,-29.17,0,*5D
1514782998.95,51662,8.0,72880.8,-2.11,-30.01,-29.17,0,*5B
1514783000.22,51663,8.0,72882.5,-2.11,-30.01,-29.13,0,*5E
1514783001.43,51664,8.06,72884.3,-2.09,-29.95,-28.97,0,*58
1514783002.69,51665,8.06,72884.0,-2.11,-29.95,-28.91,0,*56
1514783003.92,51666,8.0,72880.3,-2.11,-29.83,-28.97,0,*54
1514783005.18,51667,8.0,72880.5,-2.11,-29.83,-28.91,0,*53
1514783006.44,51668,8.06,72880.0,-2.11,-29.83,-28.91,0,*5C
1514783007.7,51669,8.0,72882.5,-2.11,-29.95,-28.91,0,*5A
1514783008.95,51670,8.0,72876.8,-2.11,-29.79,-28.79,0,*56
1514783010.22,51671,8.0,72876.8,-2.11,-29.61,-28.59,0,*5C
1514783011.44,51672,8.0,72876.8,-2.09,-29.67,-28.75,0,*5E
1514783012.69,51673,8.0,72882.3,-2.11,-29.79,-28.75,0,*59
1514783013.94,51674,8.0,72884.3,-2.11,-29.79,-28.75,0,*5E
1514783015.2,51675,8.0,72884.8,-2.11,-29.83,-28.79,0,*56
1514783016.46,51676,8.0,72886.5,-2.11,-29.83,-28.79,0,*55
1514783017.71,51677,8.0,72882.0,-2.13,-29.73,-28.53,0,*51
1514783018.94,51678,8.0,72880.3,-2.13,-29.67,-28.53,0,*5B
1514783020.21,51679,8.0,72884.5,-2.13,-29.39,-28.15,0,*53
1514783021.45,51680,8.06,72886.3,-2.13,-29.23,-28.31,0,*58
1514783022.73,51681,8.0,72880.3,-2.13,-29.39,-28.47,0,*53
1514783024.0,51682,8.06,72886.0,-2.13,-29.39,-28.15,0,*57
1514783025.23,51683,8.06,72884.8,-2.13,-29.57,-28.37,0,*5E
1514783026.49,51684,8.06,72890.3,-2.13,-29.23,-28.09,0,*57
1514783027.75,51685,8.0,72882.5,-2.13,-28.97,-27.83,0,*55
1514783029.01,51686,8.0,72886.0,-2.11,-28.91,-27.71,0,*5F
1514783030.29,51687,8.0,72884.5,-2.11,-29.13,-28.05,0,*59
1514783031.53,51688,8.0,72880.5,-2.09,-28.91,-27.77,0,*5E
1514783032.78,51689,8.06,72884.8,-2.11,-28.79,-27.55,0,*50
1514783034.01,51690,8.06,72884.0,-2.11,-28.97,-27.77,0,*58
1514783035.27,51691,8.0,72882.0,-2.09,-29.17,-28.05,0,*53
1514783036.53,51692,8.0,72878.8,-2.09,-29.17,-28.05,0,*50
1514783037.79,51693,8.0,72878.3,-2.09,-29.17,-28.05,0,*51
1514783039.04,51694,8.06,72880.3,-2.09,-29.29,-28.09,0,*57
1514783040.3,51695,8.0,72880.5,-2.09,-29.35,-28.09,0,*5B
1514783041.59,51696,8.06,72880.8,-2.11,-29.29,-28.09,0,*5C
1514783042.85,51697,8.0,72884.8,-2.11,-29.45,-28.09,0,*57
1514783044.1,51698,8.0,72882.8,-2.11,-29.17,-27.93,0,*53
1514783045.33,51699,8.0,72880.3,-2.11,-28.97,-27.71,0,*57
1514783046.57,51700,8.06,72878.0,-2.09,-29.17,-27.89,0,*51
1514783047.82,51701,8.06,72882.5,-2.11,-29.13,-27.77,0,*5C
1514783049.07,51702,8.0,72882.0,-2.11,-29.29,-27.77,0,*56
1514783050.3,51703,8.06,72888.0,-2.09,-29.17,-27.89,0,*52
1514783051.56,51704,8.06,72884.3,-2.11,-29.17,-27.89,0,*5C
1514783052.79,51705,8.06,72886.0,-2.09,-29.17,-27.89,0,*54
1514783054.05,51706,8.0,72882.3,-2.11,-29.17,-27.89,0,*5E
1514783055.31,51707,8.0,72882.5,-2.11,-29.13,-27.89,0,*5B
1514783056.54,51708,8.06,72882.3,-2.09,-29.35,-27.93,0,*52
1514783057.81,51709,8.0,72880.5,-2.09,-29.51,-28.09,0,*5D
1514783059.04,51710,8.0,72878.8,-2.11,-29.07,-27.55,0,*59
1514783060.27,51711,8.06,72886.8,-2.11,-29.07,-27.77,0,*58
1514783061.52,51712,8.0,72880.8,-2.11,-29.29,-27.93,0,*5D
1514783062.78,51713,8.06,72882.8,-2.11,-29.17,-27.89,0,*5A
1514783064.05,51714,8.06,72882.3,-2.11,-29.45,-28.05,0,*51
1514783065.34,51715,8.0,72880.0,-2.11,-29.51,-28.09,0,*59
1514783066.57,51716,8.06,72886.3,-2.11,-29.45,-27.93,0,*53
1514783067.84,51717,8.06,72886.0,-2.11,-29.35,-27.89,0,*5E
1514783069.13,51718,8.0,72882.5,-2.11,-29.35,-28.05,0,*5A
1514783070.39,51719,8.06,72886.0,-2.11,-29.17,-27.77,0,*51
1514783071.67,51720,8.0,72882.8,-2.11,-29.13,-27.61,0,*58
1514783072.92,51721,8.0,72882.5,-2.13,-28.97,-27.45,0,*50
1514783074.18,51722,8.06,72886.0,-2.13,-28.85,-27.19,0,*59
1514783075.43,51723,8.0,72876.5,-2.13,-28.85,-27.45,0,*51
1514783076.68,51724,8.06,72880.3,-2.13,-28.85,-27.45,0,*56
1514783077.97,51725,8.06,72878.3,-2.11,-28.91,-27.45,0,*50
1514783079.22,51726,8.0,72878.5,-2.11,-28.97,-27.45,0,*55
1514783080.46,51727,8.06,72880.5,-2.09,-28.91,-27.29,0,*51
1514783081.73,51728,8.06,72878.0,-2.11,-28.47,-26.93,0,*5C
1514783082.99,51729,8.06,72874.8,-2.11,-28.43,-27.03,0,*51
1514783084.25,51730,8.06,72880.8,-2.11,-28.47,-27.03,0,*5D
1514783085.53,51731,8.06,72882.3,-2.11,-28.59,-26.93,0,*5B
1514783086.81,51732,8.06,72878.5,-2.11,-28.43,-26.77,0,*59
1514783088.06,51733,8.06,72872.8,-2.09,-28.43,-26.93,0,*5B
1514783089.32,51734,8.06,72876.0,-2.09,-28.25,-26.77,0,*56
1514783090.57,51735,8.06,72874.5,-2.11,-28.15,-26.71,0,*5B
1514783091.83,51736,8.0,72870.8,-2.09,-28.25,-26.77,0,*54
1514783093.06,51737,8.06,72874.3,-2.09,-28.15,-26.55,0,*56
1514783094.32,51738,8.06,72872.8,-2.07,-28.43,-26.87,0,*5B
1514783095.58,51739,8.06,72872.3,-2.07,-28.59,-27.03,0,*5C
1514783096.84,51740,8.06,72878.3,-2.07,-28.75,-27.07,0,*58
1514783098.11,51741,8.06,72882.5,-2.07,-28.53,-26.97,0,*55
1514783099.36,51742,8.0,72868.5,-2.09,-28.25,-26.71,0,*51
1514783100.62,51743,8.06,72876.5,-2.07,-28.05,-26.49,0,*57
1514783101.88,51744,8.0,72876.5,-2.05,-28.21,-26.55,0,*59
1514783103.14,51745,8.06,72876.3,-2.05,-27.99,-26.33,0,*54
1514783104.41,51746,8.06,72872.8,-2.07,-27.89,-26.33,0,*54
1514783105.69,51747,8.0,72872.8,-2.07,-28.21,-26.55,0,*58
1514783106.95,51748,8.06,72868.0,-2.05,-27.99,-26.33,0,*59
1514783108.21,51749,8.06,72872.3,-2.05,-28.25,-26.71,0,*56
1514783109.45,51750,8.06,72868.8,-2.05,-28.37,-26.81,0,*52
1514783110.68,51751,8.06,72870.3,-2.05,-28.09,-26.49,0,*5A
1514783111.91,51752,8.06,72870.3,-2.05,-28.05,-26.49,0,*55
1514783113.12,51753,8.0,72866.8,-2.05,-28.37,-26.65,0,*5B
1514783114.34,51754,8.06,72870.5,-2.05,-28.69,-27.03,0,*56
1514783115.54,51755,8.06,72872.0,-2.05,-28.69,-27.07,0,*53
1514783116.78,51756,8.06,72876.5,-2.05,-28.69,-26.97,0,*58
1514783118.02,51757,8.06,72876.5,-2.05,-28.59,-27.07,0,*52
1514783119.25,51758,8.06,72872.5,-2.05,-28.75,-27.07,0,*53
1514783120.51,51759,8.06,72874.3,-2.07,-28.53,-26.97,0,*5C
1514783121.8,51760,8.06,72878.0,-2.07,-28.43,-26.81,0,*50
1514783123.04,51761,8.0,72878.3,-2.05,-28.53,-26.97,0,*55
1514783124.28,51762,8.06,72882.8,-2.07,-28.53,-26.87,0,*55
1514783125.54,51763,8.06,72874.8,-2.07,-28.37,-26.81,0,*50
1514783126.8,51764,8.06,72876.3,-2.07,-28.37,-26.71,0,*58
1514783128.04,51765,8.06,72872.8,-2.07,-28.53,-26.87,0,*52
1514783129.33,51766,8.06,72876.8,-2.07,-28.59,-26.97,0,*5A
1514783130.56,51767,8.0,72872.3,-2.05,-28.09,-26.49,0,*5F
1514783131.84,51768,8.06,72874.8,-2.07,-28.25,-26.71,0,*57
1514783133.1,51769,8.0,72872.5,-2.07,-28.09,-26.49,0,*53
1514783134.34,51770,8.06,72874.3,-2.05,-27.89,-26.33,0,*53
1514783135.57,51771,8.06,72878.5,-2.07,-27.89,-26.23,0,*51
1514783136.85,51772,8.06,72870.8,-2.07,-27.83,-26.33,0,*59
1514783138.09,51773,8.06,72870.5,-2.07,-27.55,-26.03,0,*50
1514783139.32,51774,8.06,72874.0,-2.05,-27.83,-26.23,0,*5C
1514783140.58,51775,8.06,72870.8,-2.07,-27.51,-25.81,0,*5B
1514783141.82,51776,8.06,72870.8,-2.05,-27.03,-25.55,0,*54
1514783143.03,51777,8.06,72876.5,-2.01,-27.67,-26.03,0,*53
1514783144.27,51778,8.06,72874.8,-2.01,-27.67,-26.13,0,*5D
1514783145.5,51779,8.06,72868.5,-2.01,-27.67,-26.13,0,*5C
1514783146.71,51780,8.06,72872.5,-2.05,-27.51,-25.91,0,*52
1514783147.94,51781,8.06,72872.3,-2.01,-27.61,-25.87,0,*53
1514783149.21,51782,8.06,72874.5,-1.99,-27.61,-26.03,0,*5D
1514783150.44,51783,8.06,72872.0,-2.01,-27.45,-25.87,0,*57
1514783151.72,51784,8.06,72864.0,-1.99,-27.35,-25.81,0,*53
1514783152.95,51785,8.06,72866.8,-2.01,-27.77,-26.17,0,*5A
1514783154.18,51786,8.06,72868.8,-2.01,-27.93,-26.17,0,*53
1514783155.44,51787,8.06,72868.0,-1.99,-27.67,-26.13,0,*5F
1514783156.71,51788,8.06,72870.3,-1.99,-27.61,-26.03,0,*57
1514783157.94,51789,8.06,72870.3,-2.01,-27.77,-26.13,0,*52
1514783159.21,51790,8.06,72864.8,-1.99,-27.77,-26.13,0,*58
1514783160.46,51791,8.06,72870.8,-2.01,-27.83,-26.17,0,*54
1514783161.73,51792,8.0,72870.0,-1.99,-27.83,-26.17,0,*55
1514783162.99,51793,8.06,72870.0,-1.99,-27.77,-26.13,0,*5B
1514783164.21,51794,8.06,72866.3,-2.01,-27.29,-25.65,0,*57
1514783165.42,51795,8.06,72860.8,-2.01,-27.13,-25.61,0,*5B
1514783166.63,51796,8.06,72862.5,-2.01,-27.13,-25.49,0,*52
1514783167.86,51797,8.06,72866.8,-1.99,-27.13,-25.49,0,*51
1514783169.13,51798,8.06,72860.0,-1.99,-26.97,-25.35,0,*58
1514783170.38,51799,8.06,72864.5,-1.99,-26.93,-25.35,0,*5D
1514783171.59,51800,8.06,72866.3,-1.97,-27.07,-25.39,0,*5C
1514783172.82,51801,8.06,72864.5,-1.97,-27.07,-25.45,0,*56
1514783174.11,51802,8.06,72872.3,-1.95,-26.97,-25.45,0,*5F
1514783175.31,51803,8.06,72868.0,-1.97,-26.87,-25.39,0,*56
1514783176.54,51804,8.06,72866.3,-1.95,-26.87,-25.39,0,*53
1514783177.8,51805,8.06,72868.8,-1.95,-27.07,-25.45,0,*50
1514783179.03,51806,8.06,72868.0,-1.97,-27.23,-25.61,0,*51
1514783180.29,51807,8.0,72870.3,-1.97,-27.39,-25.75,0,*5E
1514783181.55,51808,8.06,72876.5,-1.95,-27.45,-25.91,0,*52
1514783182.8,51809,8.06,72878.3,-1.95,-27.55,-25.97,0,*54
1514783184.1,51810,8.06,72874.8,-1.95,-27.61,-26.13,0,*54
1514783185.32,51811,8.06,72874.0,-1.97,-27.71,-26.29,0,*5F
1514783186.53,51812,8.06,72878.5,-1.97,-27.77,-26.23,0,*50
1514783187.73,51813,8.06,72876.8,-1.97,-27.71,-26.23,0,*57
1514783188.93,51814,8.06,72878.3,-1.97,-27.71,-26.23,0,*50
1514783190.13,51815,8.06,72878.8,-1.97,-27.55,-26.07,0,*51
1514783191.38,51816,8.06,72874.3,-1.95,-27.45,-25.91,0,*5D
1514783192.64,51817,8.06,72876.3,-1.97,-27.39,-25.97,0,*53
1514783193.87,51818,8.06,72878.8,-1.97,-27.55,-26.13,0,*59
1514783195.09,51819,8.06,72878.3,-1.97,-27.39,-25.91,0,*5B
1514783196.33,51820,8.06,72872.8,-1.97,-27.29,-25.81,0,*51
1514783197.58,51821,8.06,72878.3,-1.97,-27.39,-25.81,0,*51
1514783198.84,51822,8.06,72876.0,-1.99,-27.51,-26.13,0,*5A
1514783200.07,51823,8.06,72876.8,-1.99,-27.51,-26.03,0,*5A
1514783201.33,51824,8.06,72880.0,-1.99,-27.67,-26.13,0,*59
1514783202.57,51825,8.06,72880.5,-1.99,-27.51,-26.03,0,*5C
1514783203.81,51826,8.06,72878.0,-2.01,-27.45,-26.03,0,*58
1514783205.04,51827,8.06,72882.0,-2.01,-27.51,-26.13,0,*5D
1514783206.28,51828,8.06,72876.8,-2.01,-26.97,-25.61,0,*5F
1514783207.54,51829,8.06,72876.0,-1.99,-27.13,-25.81,0,*5F
1514783208.81,51830,8.06,72874.5,-1.99,-27.19,-25.81,0,*5D
1514783210.08,51831,8.06,72872.3,-1.99,-26.97,-25.65,0,*51
1514783211.34,51832,8.06,72876.3,-2.01,-26.81,-25.45,0,*55
1514783212.57,51833,8.06,72876.3,-2.01,-26.93,-25.49,0,*5B
1514783213.86,51834,8.06,72872.8,-1.99,-26.93,-25.45,0,*52
1514783215.06,51835,8.06,72876.3,-2.01,-26.61,-25.35,0,*5B
1514783216.32,51836,8.06,72878.8,-1.99,-26.49,-25.29,0,*5D
1514783217.58,51837,8.06,72872.5,-1.99,-26.61,-25.29,0,*56
1514783218.79,51838,8.06,72872.8,-1.97,-26.45,-25.09,0,*53
1514783220.04,51839,8.06,72874.0,-1.99,-26.61,-25.29,0,*58
1514783221.25,51840,8.06,72872.8,-1.97,-26.61,-25.39,0,*59
1514783222.54,51841,8.06,72874.3,-1.95,-26.77,-25.55,0,*57
1514783223.76,51842,8.06,72876.8,-1.97,-26.87,-25.45,0,*58
1514783224.99,51843,8.06,72876.8,-1.97,-26.71,-25.39,0,*5B
1514783226.22,51844,8.06,72878.5,-1.97,-26.71,-25.39,0,*5C
1514783227.47,51845,8.06,72876.0,-1.97,-26.55,-25.29,0,*5A
1514783228.67,51846,8.06,72878.0,-1.97,-26.61,-25.39,0,*5F
1514783229.93,51847,8.06,72882.0,-1.95,-26.61,-25.45,0,*57
1514783231.19,51848,8.06,72884.3,-1.95,-26.71,-25.39,0,*52
1514783232.47,51849,8.06,72880.3,-1.95,-26.93,-25.81,0,*5C
1514783233.73,51850,8.06,72882.5,-1.97,-26.97,-25.97,0,*55
1514783234.96,51851,8.06,72882.5,-1.97,-26.87,-25.71,0,*5D
1514783236.23,51852,8.06,72882.8,-1.97,-26.77,-25.71,0,*51
1514783237.46,51853,8.06,72880.0,-1.95,-26.61,-25.39,0,*59
1514783238.71,51854,8.06,72876.3,-1.97,-26.55,-25.29,0,*5A
1514783239.91,51855,8.06,72872.5,-1.97,-26.45,-25.39,0,*5B
1514783241.17,51856,8.06,72872.5,-1.97,-26.55,-25.29,0,*58
1514783242.39,51857,8.06,72872.5,-1.97,-26.39,-25.29,0,*53
1514783243.62,51858,8.06,72872.8,-1.97,-26.39,-25.29,0,*5C
1514783244.83,51859,8.06,72872.3,-1.97,-26.45,-25.39,0,*57
1514783246.09,51860,8.06,72878.3,-1.95,-26.39,-25.29,0,*55
1514783247.35,51861,8.06,72878.0,-1.95,-26.13,-25.13,0,*55
1514783248.58,51862,8.06,72878.3,-1.95,-26.07,-25.13,0,*53
1514783249.81,51863,8.06,72874.8,-1.97,-26.13,-25.23,0,*56
1514783251.06,51864,8.06,72876.5,-1.95,-26.39,-25.45,0,*5B
1514783252.32,51865,8.06,72882.3,-1.95,-26.45,-25.55,0,*50
1514783253.56,51866,8.06,72878.3,-1.95,-26.61,-25.61,0,*52
1514783254.83,51867,8.06,72878.3,-1.95,-26.61,-25.71,0,*52
1514783256.06,51868,8.06,72880.3,-1.95,-26.45,-25.61,0,*5A
1514783257.33,51869,8.06,72876.8,-1.95,-26.39,-25.55,0,*57
1514783258.59,51870,8.06,72876.3,-1.95,-26.13,-25.39,0,*5D
1514783259.82,51871,8.06,72878.0,-1.97,-26.29,-25.39,0,*57
1514783261.07,51872,8.06,72878.0,-1.95,-26.23,-25.45,0,*57
1514783262.27,51873,8.06,72882.8,-1.97,-26.45,-25.61,0,*52
1514783263.54,51874,8.06,72882.5,-1.95,-26.45,-25.71,0,*56
1514783264.79,51875,8.06,72882.5,-1.95,-26.61,-25.81,0,*5E
1514783266.05,51876,8.06,72880.3,-1.97,-26.77,-25.75,0,*53
1514783267.33,51877,8.06,72878.3,-1.95,-26.55,-25.81,0,*5B
1514783268.56,51878,8.06,72882.5,-1.97,-26.61,-25.81,0,*51
1514783269.79,51879,8.06,72882.8,-1.97,-26.61,-25.81,0,*50
1514783270.99,51880,8.06,72880.5,-1.97,-26.61,-25.91,0,*57
1514783272.24,51881,8.06,72884.0,-1.97,-26.55,-25.81,0,*50
1514783273.47,51882,8.06,72880.8,-1.97,-26.45,-25.75,0,*59
1514783274.73,51883,8.06,72880.0,-1.99,-26.61,-25.81,0,*5B
1514783275.98,51884,8.06,72878.5,-1.97,-26.55,-25.75,0,*5E
1514783277.18,51885,8.06,72882.0,-1.97,-26.61,-25.91,0,*52
1514783278.43,51886,8.06,72880.8,-1.97,-26.55,-25.81,0,*57
1514783279.63,51887,8.06,72882.3,-1.97,-26.61,-25.91,0,*50
1514783280.89,51888,8.06,72884.0,-1.99,-26.61,-25.97,0,*57
1514783282.13,51889,8.06,72884.8,-1.99,-26.61,-26.03,0,*58
1514783283.39,51890,8.06,72882.8,-1.99,-26.65,-26.13,0,*55
1514783284.59,51891,8.06,72878.5,-1.97,-26.45,-25.91,0,*51
1514783285.8,51892,8.06,72880.5,-2.01,-26.61,-26.03,0,*50
1514783287.02,51893,8.06,72884.8,-2.01,-26.65,-26.03,0,*55
1514783288.26,51894,8.06,72884.3,-2.01,-26.49,-25.97,0,*52
1514783289.52,51895,8.06,72886.3,-1.99,-26.13,-25.65,0,*53
1514783290.75,51896,8.06,72880.8,-2.01,-25.81,-25.35,0,*5F
1514783292.01,51897,8.06,72878.3,-1.99,-25.81,-25.49,0,*57
1514783293.27,51898,8.06,72882.5,-1.99,-26.13,-25.65,0,*5E
1514783294.52,51899,8.06,72880.0,-1.99,-26.29,-25.87,0,*5A
1514783295.81,51900,8.06,72884.3,-1.99,-26.13,-25.75,0,*5F
1514783297.1,51901,8.06,72880.5,-1.99,-26.33,-25.97,0,*50
1514783298.36,51902,8.06,72884.0,-1.99,-26.29,-25.87,0,*59
1514783299.62,51903,8.06,72888.3,-2.01,-26.33,-25.97,0,*50
1514783300.88,51904,8.06,72880.0,-2.01,-26.13,-25.97,0,*55
1514783302.12,51905,8.06,72886.8,-2.01,-26.29,-26.03,0,*53
1514783303.38,51906,8.06,72884.8,-2.01,-26.33,-26.13,0,*5A
1514783304.61,51907,8.06,72882.3,-2.01,-25.81,-25.65,0,*53
1514783305.84,51908,8.06,72880.5,-2.01,-25.87,-25.81,0,*50
1514783307.1,51909,8.06,72890.0,-2.01,-26.13,-25.97,0,*58
1514783308.34,51910,8.06,72886.8,-2.01,-26.17,-26.03,0,*5A
1514783309.55,51911,8.06,72882.8,-2.01,-26.03,-25.87,0,*51